Location: Caoba
(9.7667°N, 67.4833°W)
Time: 18:41:14
(UTC+00:00)

GOES 2 Rocket - Pass Details

Date: 05 December 2024
Orbit: 569 x 1662 km, 28.4° (Epoch: 13 January)

Event Time Altitude Azimuth Distance (km) Brightness Sun altitude
Exits shadow 09:44:35 - 338° (NNW) 2,214 5.5 -12.0°
Reaches altitude 10° 09:45:41 10° 349° (N) 1,998 5.4 -11.7°
Maximum altitude 09:48:05 14° 21° (NNE) 1,844 5.5 -11.2°
Drops below altitude 10° 09:50:42 10° 52° (NE) 2,222 6.3 -10.6°
Sets 09:54:41 0° 77° (ENE) 3,377 7.8 -9.7°
